Terminal Aerodrome Forecast
Issued by NWS

Current Version | Previous Version | Graphics & Text | Print | Product List | Glossary On
Versions: 1 2 3 4 5 6 7 8 9 10 11 12 13 14 15 16
000
FTUS41 KILN 091739
TAFLCK
TAF
KLCK 091739Z 0918/1018 26012KT P6SM OVC060
     FM100000 26005KT P6SM OVC040
     FM100800 24004KT P6SM SCT035 BKN120
     FM101400 24008KT P6SM BKN080
      AMD NOT SKED=

USA.gov is the U.S. government's official web portal to all federal, state and local government web resources and services.